Terminal Aerodrome Forecast
Issued by NWS

Home | Current Version | Previous Version | Text Only | Print | Product List | Glossary On
Versions: 1 2 3 4 5 6 7 8 9 10 11 12 13 14 15 16 17 18 19 20 21 22 23
121
FTUS43 KGRR 300315 AAC
TAFLAN
TAF AMD
KLAN 300315Z 3003/3024 06012KT P6SM -SHRA VCTS OVC035CB
     FM300500 07013G21KT 5SM -RA BR VCTS OVC030CB
     FM300900 09014G20KT 3SM -RA BR VCTS OVC005CB
     FM301500 09011KT 2SM -SHRA BR OVC003=

USA.gov is the U.S. government's official web portal to all federal, state and local government web resources and services.